User: anonymous   Login
Location: Tucson
(32.2217°N, 110.9265°W)
Time: 08:10:37
(UTC-07:00)
Language:

LightSail 2 - Orbit

View from above orbital plane
View from above orbital plane
View from above satellite
View from above satellite

Ground track
Ground track

The orbit data is extracted from the following two-line orbital elements,

1 44420U 19036AC  20226.89748881 +.00005036 +00000-0 +10717-2 0  9990
2 44420 024.0061 104.7118 0009685 057.0294 303.1128 14.56130258058709
Epoch (UTC): 13 August 2020 21:32:23
Eccentricity: 0.0009685
inclination: 24.0061°
perigee height: 699 km
apogee height: 712 km
right ascension of ascending node: 104.7118°
argument of perigee: 57.0294°
revolutions per day: 14.56130258
mean anomaly at epoch: 303.1128°
orbit number at epoch: 5870

The dashed part of the orbit path shows where the satellite is in the earth's shadow,  

DLR